This is the latest recevied weather packets stored in our database for station/object KC0AFB. If no packets are shown the sender has not sent any weather packets the latest 10 day(s).
| Time | Temp. | Humidity | Pressure | Rain* | Wind** | Luminosity | Snow |
|---|---|---|---|---|---|---|---|
| 1778225584 | 7.78° C | 43% | 1008.7 hPa | 0 mm | - | 0 W/m² | - |
| 1778225280 | 6.67° C | 45% | 1008.5 hPa | 0 mm | - | 0 W/m² | - |
| 1778224977 | 7.22° C | 46% | 1008.6 hPa | 0 mm | - | 0 W/m² | - |
| 1778224674 | 6.67° C | 45% | 1008.7 hPa | 0 mm | - | 0 W/m² | - |
| 1778224373 | 6.67° C | 46% | 1008.6 hPa | 0 mm | - | 0 W/m² | - |
| 1778224070 | 7.22° C | 46% | 1008.6 hPa | 0 mm | - | 0 W/m² | - |
| 1778223768 | 6.67° C | 46% | 1008.9 hPa | 0 mm | - | 0 W/m² | - |
| 1778223465 | 7.22° C | 45% | 1008.6 hPa | 0 mm | - | 0 W/m² | - |
| 1778223163 | 7.78° C | 43% | 1008.8 hPa | 0 mm | - | 0 W/m² | - |
| 1778222860 | 7.78° C | 43% | 1009 hPa | 0 mm | - | 0 W/m² | - |
| 1778222559 | 8.33° C | 44% | 1008.9 hPa | 0 mm | - | 0 W/m² | - |
| 1778222255 | 8.33° C | 42% | 1008.9 hPa | 0 mm | - | 0 W/m² | - |
| 1778221954 | 8.89° C | 42% | 1008.8 hPa | 0 mm | - | 0 W/m² | - |
| 1778221650 | 8.89° C | 41% | 1008.7 hPa | 0 mm | - | 0 W/m² | - |
| 1778221348 | 8.89° C | 41% | 1008.7 hPa | 0 mm | - | 0 W/m² | - |
| 1778221045 | 8.89° C | 40% | 1008.7 hPa | 0 mm | - | 0 W/m² | - |
| 1778220742 | 8.89° C | 41% | 1008.9 hPa | 0 mm | - | 0 W/m² | - |
| 1778220438 | 8.89° C | 41% | 1008.7 hPa | 0 mm | - | 0 W/m² | - |
| 1778220136 | 8.89° C | 41% | 1008.7 hPa | 0 mm | - | 0 W/m² | - |
| 1778219831 | 8.89° C | 40% | 1008.8 hPa | 0 mm | - | 0 W/m² | - |
| 1778219529 | 9.44° C | 39% | 1008.8 hPa | 0 mm | - | 0 W/m² | - |
| 1778219225 | 9.44° C | 40% | 1009 hPa | 0 mm | - | 0 W/m² | - |
| 1778218923 | 9.44° C | 39% | 1008.9 hPa | 0 mm | - | 0 W/m² | - |
| 1778218619 | 10° C | 38% | 1008.8 hPa | 0 mm | - | 0 W/m² | - |
| 1778218317 | 10° C | 37% | 1009.3 hPa | 0 mm | - | 0 W/m² | - |
* Rain latest hour (hover to see other rain measurements)
** Current wind speed in m/s (hover to see current wind gust speed)